Oak Ridge, TN

4:23 AM EDT on October 22, 2017 (GMT -0400)
Oak Ridge

Weather History for KOQT - January, 2014

Change the Weather History Date:

Tuesday, January 14, 2014

  Actual Average (KTYS) Record (KTYS)
Temperature  
Mean Temperature 46 °F -  
Max Temperature 55 °F 44 °F 74 °F (1932)
Min Temperature 37 °F 27 °F 1 °F (1893)
Degree Days  
Heating Degree Days 19    
Moisture  
Dew Point 40 °F    
Average Humidity 81    
Maximum Humidity 97    
Minimum Humidity 37    
Precipitation  
Precipitation 0.18 in - - ()
Sea Level Pressure  
Sea Level Pressure 29.89 in    
Wind  
Wind Speed 3 mph (SW)    
Max Wind Speed 9 mph    
Max Gust Speed -    
Visibility 8 miles    
Events Rain    
Averages and records for this station are not official NWS values.
T = Trace of Precipitation, MM = Missing Value Source: NWS Daily Summary

Daily Weather History Graph

Daily Weather History Graph

Search for Another Location

Airport or City:

Trip Planner

Search our weather history database for the weather conditions in past years. The results will help you decide how hot, cold, wet, or windy it might be!

Date:

Astronomy

Jan. 14, 2014 Rise Set
Actual Time 7:47 AM EST 5:45 PM EST
Civil Twilight 7:19 AM EST 6:13 PM EST
Nautical Twilight 6:47 AM EST 6:44 PM EST
Astronomical Twilight 6:16 AM EST 7:15 PM EST
Moon 4:48 PM EST (1/14) 6:21 AM EST (1/14)
Length of Visible Light 10h 54m
Length of Day
9h 58m
Waxing Gibbous, 98% of the Moon is Illuminated
Jan 14
Waxing Gibbous
Jan 15
Full
Jan 24
Last Quarter
Jan 30
New
Feb 6
First Quarter

Hourly Weather History & Observations

Time (EST) Temp. Windchill Dew Point Humidity Pressure Visibility Wind Dir Wind Speed Gust Speed Precip Events Conditions
12:00 AM 45.0 °F 41.8 °F 44.1 °F 97% 29.86 in 5.0 mi West 5.8 mph - 0.00 in Rain Light Rain
12:35 AM 45.0 °F - 44.1 °F 97% 29.84 in 5.0 mi Calm Calm - 0.01 in   Overcast
12:53 AM 45.0 °F 43.5 °F 44.1 °F 97% 29.85 in 4.0 mi SW 3.5 mph - 0.01 in   Overcast
1:07 AM 45.0 °F - 44.1 °F 97% 29.82 in 5.0 mi Calm Calm - N/A   Overcast
1:21 AM 45.0 °F - 44.1 °F 97% 29.82 in 6.0 mi Calm Calm - 0.00 in Rain Light Rain
1:42 AM 46.0 °F - 44.1 °F 93% 29.82 in 2.5 mi Calm Calm - 0.03 in Rain Rain
1:49 AM 46.4 °F 45.2 °F 44.6 °F 93% 29.82 in 2.5 mi Variable 3.5 mph - 0.04 in Rain Light Rain
1:53 AM 46.0 °F 43.9 °F 45.0 °F 96% 29.84 in 2.0 mi West 4.6 mph - 0.04 in Rain Rain
2:06 AM 46.0 °F - 45.0 °F 96% 29.82 in 3.0 mi Calm Calm - 0.04 in Rain Light Rain
2:13 AM 46.0 °F - 45.0 °F 96% 29.81 in 5.0 mi Calm Calm - 0.05 in Rain Light Rain
2:49 AM 46.4 °F 45.2 °F 44.6 °F 93% 29.83 in 3.0 mi SW 3.5 mph - 0.07 in Rain Light Rain
2:53 AM 46.0 °F 44.8 °F 45.0 °F 96% 29.85 in 4.0 mi WSW 3.5 mph - 0.08 in Rain Light Rain
3:01 AM 46.0 °F 44.8 °F 45.0 °F 96% 29.83 in 5.0 mi SW 3.5 mph - 0.00 in Rain Light Rain
3:25 AM 46.0 °F - 45.0 °F 96% 29.83 in 6.0 mi Calm Calm - 0.03 in Rain Light Rain
3:36 AM 46.0 °F 44.8 °F 45.0 °F 96% 29.82 in 7.0 mi SSW 3.5 mph - 0.03 in Rain Light Rain
3:53 AM 46.0 °F - 45.0 °F 96% 29.84 in 7.0 mi Calm Calm - 0.03 in Rain Light Rain
4:17 AM 46.0 °F 44.8 °F 45.0 °F 96% 29.82 in 7.0 mi South 3.5 mph - 0.00 in   Overcast
4:53 AM 46.0 °F 44.8 °F 45.0 °F 96% 29.85 in 10.0 mi Variable 3.5 mph - 0.01 in   Overcast
5:11 AM 46.0 °F - 44.1 °F 93% 29.82 in 10.0 mi Calm Calm - N/A   Overcast
5:53 AM 46.0 °F 43.1 °F 41.0 °F 83% 29.88 in 10.0 mi NNW 5.8 mph - 0.00 in Rain Light Rain
6:53 AM 44.1 °F - 42.1 °F 93% 29.91 in 10.0 mi Calm Calm - 0.01 in   Overcast
7:53 AM 43.0 °F 41.3 °F 42.1 °F 97% 29.94 in 10.0 mi SSW 3.5 mph - N/A   Clear
8:53 AM 45.0 °F - 43.0 °F 93% 29.96 in 10.0 mi Calm Calm - N/A   Clear
9:53 AM 46.9 °F - 43.0 °F 86% 29.95 in 10.0 mi Calm Calm - N/A   Clear
10:53 AM 48.9 °F - 42.1 °F 77% 29.98 in 10.0 mi Variable 4.6 mph - N/A   Clear
11:53 AM 50.0 °F - 39.0 °F 66% 29.99 in 10.0 mi West 8.1 mph - N/A   Clear
12:53 PM 52.0 °F - 33.1 °F 49% 29.94 in 10.0 mi Variable 6.9 mph - N/A   Partly Cloudy
1:53 PM 54.0 °F - 28.9 °F 38% 29.93 in 10.0 mi West 9.2 mph - N/A   Clear
2:53 PM 54.0 °F - 28.9 °F 38% 29.93 in 10.0 mi SSW 9.2 mph - N/A   Clear
3:53 PM 55.0 °F - 28.9 °F 37% 29.93 in 10.0 mi SSW 5.8 mph - N/A   Clear
4:53 PM 53.1 °F - 28.0 °F 38% 29.93 in 10.0 mi SSW 5.8 mph - N/A   Clear
5:53 PM 50.0 °F - 28.9 °F 44% 29.96 in 10.0 mi SSW 4.6 mph - N/A   Clear
6:53 PM 48.0 °F - 28.0 °F 46% 29.96 in 10.0 mi SW 3.5 mph - N/A   Clear
7:53 PM 43.0 °F - 30.9 °F 62% 29.98 in 10.0 mi Calm Calm - N/A   Clear
8:53 PM 39.9 °F - 30.9 °F 70% 29.99 in 10.0 mi Calm Calm - N/A   Clear
9:53 PM 37.9 °F - 32.0 °F 79% 29.99 in 10.0 mi Calm Calm - N/A   Partly Cloudy
10:53 PM 37.0 °F - 32.0 °F 82% 29.99 in 10.0 mi Calm Calm - N/A   Overcast
11:53 PM 41.0 °F - 32.0 °F 70% 29.96 in 10.0 mi Calm Calm - N/A   Mostly Cloudy